Latham, NY

11:03 AM EST on January 21, 2017 (GMT -0500)
Albany International Airport

Weather History for KALB - August, 2014

Change the Weather History Date:

Saturday, August 2, 2014

  Actual Average Record
Temperature  
Mean Temperature 73 °F 72 °F  
Max Temperature 81 °F 82 °F 97 °F (1975)
Min Temperature 64 °F 61 °F 45 °F (1976)
Degree Days  
Heating Degree Days 0 0  
Month to date heating degree days 0 0  
Since 1 June heating degree days 12 57  
Since 1 July heating degree days 0 5  
Cooling Degree Days 8 7  
Month to date cooling degree days 15 14  
Year to date cooling degree days 435 380  
Since 1 June cooling degree days 400 350  
Growing Degree Days 24 (Base 50)    
Moisture  
Dew Point 63 °F    
Average Humidity 69    
Maximum Humidity 90    
Minimum Humidity 48    
Precipitation  
Precipitation T in 0.13 in 1.55 in (1973)
Month to date precipitation T 0.26  
Year to date precipitation 25.20 22.95  
Sea Level Pressure  
Sea Level Pressure 30.15 in    
Wind  
Wind Speed 5 mph (SSE)    
Max Wind Speed 12 mph    
Max Gust Speed 16 mph    
Visibility 9 miles    
Events      
T = Trace of Precipitation, MM = Missing Value Source: NWS Daily Summary

Daily Weather History Graph

Daily Weather History Graph

Search for Another Location

Airport or City:

Trip Planner

Search our weather history database for the weather conditions in past years. The results will help you decide how hot, cold, wet, or windy it might be!

Date:

Astronomy

Aug. 02, 2014 Rise Set
Actual Time 5:47 AM EDT 8:14 PM EDT
Civil Twilight 5:15 AM EDT 8:46 PM EDT
Nautical Twilight 4:36 AM EDT 9:25 PM EDT
Astronomical Twilight 3:51 AM EDT 10:10 PM EDT
Moon 12:16 PM EDT (8/2) 11:21 PM EDT (8/2)
Length of Visible Light 15h 30m
Length of Day
14h 26m
Waxing Crescent, 36% of the Moon is Illuminated
Aug 2
Waxing Crescent
Aug 3
First Quarter
Aug 10
Full
Aug 17
Last Quarter
Aug 25
New

Hourly Weather History & Observations

Time (EDT) Temp. Heat Index Dew Point Humidity Pressure Visibility Wind Dir Wind Speed Gust Speed Precip Events Conditions
12:51 AM 71.1 °F - 64.0 °F 78% 30.19 in 10.0 mi South 6.9 mph - N/A   Overcast
1:51 AM 70.0 °F - 64.0 °F 81% 30.18 in 10.0 mi South 5.8 mph - N/A   Overcast
2:51 AM 69.8 °F - 64.4 °F 83% 30.17 in 10.0 mi SE 3.5 mph - N/A   Mostly Cloudy
3:51 AM 68.0 °F - 64.0 °F 87% 30.17 in 10.0 mi Variable 3.5 mph - N/A   Mostly Cloudy
4:51 AM 68.0 °F - 64.9 °F 90% 30.16 in 10.0 mi ESE 3.5 mph - N/A   Overcast
5:51 AM 68.0 °F - 64.9 °F 90% 30.17 in 5.0 mi Calm Calm - N/A   Overcast
5:57 AM 66.9 °F - 64.0 °F 90% 30.18 in 5.0 mi Calm Calm - N/A   Overcast
6:32 AM 68.0 °F - 64.9 °F 90% 30.18 in 5.0 mi South 4.6 mph - N/A   Overcast
6:51 AM 69.1 °F - 64.9 °F 87% 30.19 in 5.0 mi South 6.9 mph - N/A   Overcast
7:14 AM 69.1 °F - 66.0 °F 90% 30.19 in 5.0 mi SSE 5.8 mph - N/A   Overcast
7:51 AM 69.1 °F - 66.0 °F 90% 30.19 in 5.0 mi South 4.6 mph - N/A   Overcast
7:57 AM 69.1 °F - 66.0 °F 90% 30.19 in 5.0 mi South 5.8 mph - N/A   Overcast
8:51 AM 70.0 °F - 66.0 °F 87% 30.19 in 6.0 mi South 3.5 mph - N/A   Overcast
9:21 AM 70.0 °F - 66.0 °F 87% 30.19 in 6.0 mi South 6.9 mph - N/A   Overcast
9:35 AM 70.0 °F - 64.9 °F 84% 30.18 in 6.0 mi SSE 9.2 mph - 0.00 in   Overcast
9:51 AM 71.1 °F - 66.0 °F 84% 30.18 in 8.0 mi South 6.9 mph - 0.00 in   Overcast
10:51 AM 72.0 °F - 64.0 °F 76% 30.19 in 10.0 mi South 9.2 mph - N/A   Mostly Cloudy
11:51 AM 75.9 °F - 61.0 °F 60% 30.17 in 10.0 mi South 6.9 mph - N/A   Mostly Cloudy
12:51 PM 77.0 °F - 60.1 °F 56% 30.16 in 10.0 mi SSE 8.1 mph - N/A   Mostly Cloudy
1:51 PM 79.0 °F - 61.0 °F 54% 30.15 in 10.0 mi Variable 4.6 mph - N/A   Mostly Cloudy
2:51 PM 79.0 °F - 62.1 °F 56% 30.12 in 10.0 mi SE 3.5 mph - N/A   Mostly Cloudy
3:51 PM 81.0 °F 81.7 °F 61.0 °F 50% 30.10 in 10.0 mi South 8.1 mph - N/A   Mostly Cloudy
4:51 PM 79.0 °F - 61.0 °F 54% 30.09 in 10.0 mi South 9.2 mph - N/A   Mostly Cloudy
5:51 PM 79.0 °F - 59.0 °F 50% 30.09 in 10.0 mi SSE 9.2 mph - N/A   Mostly Cloudy
6:51 PM 78.1 °F - 57.9 °F 50% 30.09 in 10.0 mi South 8.1 mph - N/A   Mostly Cloudy
7:51 PM 75.0 °F - 57.9 °F 55% 30.10 in 10.0 mi South 8.1 mph - N/A   Mostly Cloudy
8:51 PM 73.0 °F - 57.9 °F 59% 30.10 in 10.0 mi SSE 3.5 mph - N/A   Mostly Cloudy
9:51 PM 71.1 °F - 59.0 °F 66% 30.12 in 10.0 mi Calm Calm - N/A   Mostly Cloudy
10:51 PM 69.1 °F - 60.1 °F 73% 30.12 in 10.0 mi SE 3.5 mph - N/A   Mostly Cloudy
11:51 PM 66.0 °F - 60.1 °F 81% 30.12 in 10.0 mi Calm Calm - N/A   Scattered Clouds